Flag for Germany Weather past 2 weeks in Zweibrücken, Rhineland-Palatinate, Germany

Now
52 °F

Partly sunny.


Feels Like: 46 °F
Forecast: 43 / 52 °F
Wind: 21 mph from West

Location: Saarbruecken / Ensheim

Current Time: Dec 18, 2014 at 4:39:06 PM

Latest Report: Dec 18, 2014 at 4:20 PM


Visibility: 4 mi

Pressure: 30.01 "Hg

Humidity: 100%

Dew point: 52 °F

Location of ZweibrückenLocation

Historic Weather in Zweibrücken — Graph

°F

Zweibrücken temperature yesterday

Maximum temperature yesterday: 43 °F (at 8:20 PM)
Minimum temperature yesterday: 36 °F (at 2:20 AM)
Average temperature yesterday: 38 °F

Past Weeks' High & Low Weather Summary

 TemperatureHumidityPressure
High52 °F (Dec 18, 1:20 PM)100% (Dec 3, 3:20 PM)30.39 "Hg (Dec 3, 3:20 PM)
Low32 °F (Dec 3, 3:20 PM)70% (Dec 7, 1:50 PM)29.65 "Hg (Dec 12, 4:50 PM)
Average39 °F94%30.02 "Hg
* Reported Dec 3 3:20 PM — Dec 18 3:20 PM, Zweibrücken, Weather by CustomWeather, © 2014

Note: Actual official high and low records may vary slightly from our data, if they occured in-between our weather recording intervals... More about our weather records

Advertising

Zweibrücken weather history for previous 24 hours

 ConditionsComfort  
Time TempWeatherWind HumidityBarometerVisibility
3:20 PM
Dec 18
52 °FDrizzle. Fog.18 mph100%30.01 "Hg2 mi
2:50 PM52 °FDrizzle. Fog.16 mph94%30.01 "Hg2 mi
2:20 PM52 °FPartly sunny.18 mph100%29.98 "Hg4 mi
1:50 PM52 °FDrizzle. Fog.17 mph100%29.98 "Hg2 mi
1:20 PM52 °FPartly sunny.17 mph94%29.98 "Hg4 mi
12:50 PM50 °FDrizzle. Fog.16 mph100%29.98 "Hg2 mi
12:20 PM50 °FDrizzle. Fog.16 mph100%29.98 "Hg1 mi
11:50 AM50 °FDrizzle. Fog.15 mph94%29.98 "Hg1 mi
11:20 AM48 °FDrizzle. Fog.16 mph100%29.98 "Hg1 mi
10:50 AM48 °FDrizzle. Fog.16 mph100%29.98 "Hg2 mi
10:20 AM48 °FFog.17 mph100%29.98 "Hg2 mi
9:50 AM48 °FFog.16 mph94%29.98 "Hg2 mi
9:20 AM46 °FFog.13 mph100%29.95 "Hg2 mi
8:50 AM46 °FDrizzle. Fog.10 mph100%29.95 "Hg1 mi
8:20 AM46 °FDrizzle. Fog.10 mph100%29.95 "Hg2 mi
7:50 AM46 °FDrizzle. Fog.13 mph100%29.95 "Hg2 mi
7:20 AM45 °FFog.13 mph100%29.95 "Hg3 mi
6:50 AM45 °FFog.13 mph100%29.95 "Hg2 mi
6:20 AM45 °FFog.13 mph100%29.95 "Hg1 mi
5:50 AM45 °FDrizzle. Fog.14 mph100%29.95 "Hg1 mi
5:20 AM45 °FDrizzle. Fog.14 mph100%29.95 "Hg1 mi
4:20 AM45 °FDrizzle. Fog.13 mph93%29.95 "Hg1 mi
3:50 AM45 °FDrizzle. Fog.13 mph93%29.95 "Hg1 mi
3:20 AM45 °FDrizzle. Fog.12 mph93%29.95 "Hg0 mi
2:50 AM43 °FDrizzle. Fog.12 mph100%29.95 "Hg0 mi
2:20 AM43 °FFog.9 mph100%29.95 "Hg0 mi
1:50 AM43 °FDrizzle. Fog.12 mph100%29.95 "Hg1 mi
1:20 AM43 °FDrizzle. Fog.13 mph100%29.95 "Hg1 mi
12:50 AM43 °FDrizzle. Fog.13 mph100%29.95 "Hg1 mi
12:20 AM43 °FFog.12 mph100%29.95 "Hg1 mi
11:20 PM
Dec 17
43 °FDrizzle. Fog.10 mph100%29.92 "Hg1 mi
10:50 PM43 °FDrizzle. Fog.8 mph100%29.92 "Hg1 mi
10:20 PM43 °FFog.13 mph100%29.92 "Hg1 mi
9:50 PM43 °FFog.8 mph100%29.89 "Hg1 mi
9:20 PM43 °FFog.10 mph100%29.89 "Hg1 mi
8:50 PM41 °FFog.10 mph100%29.89 "Hg1 mi
8:20 PM43 °FFog.12 mph93%29.86 "Hg1 mi
7:50 PM41 °FFog.13 mph100%29.86 "Hg1 mi
7:20 PM41 °FDrizzle. Fog.12 mph100%29.86 "Hg1 mi
6:50 PM41 °FFog.10 mph100%29.83 "Hg2 mi
6:20 PM41 °FDrizzle. Fog.12 mph100%29.83 "Hg2 mi
5:50 PM41 °FDrizzle. Fog.13 mph100%29.80 "Hg2 mi
5:20 PM41 °FDrizzle. Fog.13 mph100%29.80 "Hg2 mi
4:50 PM41 °FDrizzle. Fog.14 mph93%29.80 "Hg1 mi
4:20 PM41 °FDrizzle. Fog.14 mph93%29.77 "Hg1 mi
Weather by CustomWeather, © 2014

See weather overviewHow to use our weather pages